Location: Unspecified
(0.0000°N, 0.0000°E)
Time: 14:41:07
(UTC+00:00)

Vanguard 2 Rocket - Pass Details

Date: 19 November 2019
Orbit: 556 x 3324 km, 32.9° (Epoch: 08 July)

Event Time Altitude Azimuth Distance (km) Brightness Sun altitude
Rises 06:55:11 0° 321° (NW) 4,511 10.0 16.5°
Reaches altitude 10° 06:57:53 10° 328° (NNW) 3,843 9.7 17.1°
Maximum altitude 07:08:16 47° 40° (NE) 2,885 9.9 19.5°
Drops below altitude 10° 07:24:57 10° 107° (ESE) 6,037 13.1 23.4°
Sets 07:30:27 0° 112° (ESE) 7,238 12.9 24.7°
